Charlotte, NC

12:29 AM EDT on April 26, 2017 (GMT -0400)
Charlotte-Douglas International

Weather History for KCLT - March, 2014

Change the Weather History Date:

Wednesday, March 12, 2014

  Actual Average Record
Temperature  
Mean Temperature 59 °F 50 °F  
Max Temperature 75 °F 62 °F 86 °F (1990)
Min Temperature 43 °F 38 °F 19 °F (1969)
Degree Days  
Heating Degree Days 6 15  
Month to date heating degree days 212 198  
Since 1 July heating degree days 2888 2897  
Cooling Degree Days 0 0  
Month to date cooling degree days 0 0  
Year to date cooling degree days 1 0  
Growing Degree Days 9 (Base 50)    
Moisture  
Dew Point 51 °F    
Average Humidity 67    
Maximum Humidity 93    
Minimum Humidity 41    
Precipitation  
Precipitation 0.05 in 0.14 in 2.17 in (1968)
Month to date precipitation 2.33 1.62  
Year to date precipitation 9.25 8.35  
Snow  
Snow 0.00 in 0.10 in 3.80 in (1914)
Month to date snowfall T 0.4  
Since 1 July snowfall 9.3 4.1  
Snow Depth 0.00 in    
Sea Level Pressure  
Sea Level Pressure 29.52 in    
Wind  
Wind Speed 15 mph (SW)    
Max Wind Speed 30 mph    
Max Gust Speed 43 mph    
Visibility 8 miles    
Events Rain    
T = Trace of Precipitation, MM = Missing Value Source: NWS Daily Summary

Daily Weather History Graph

Daily Weather History Graph

Search for Another Location

Airport or City:

Trip Planner

Search our weather history database for the weather conditions in past years. The results will help you decide how hot, cold, wet, or windy it might be!

Date:

Astronomy

Mar. 12, 2014 Rise Set
Actual Time 7:38 AM EDT 7:28 PM EDT
Civil Twilight 7:13 AM EDT 7:54 PM EDT
Nautical Twilight 6:43 AM EDT 8:23 PM EDT
Astronomical Twilight 6:14 AM EDT 8:53 PM EDT
Moon 4:04 PM EDT (3/12) 5:02 AM EDT (3/12)
Length of Visible Light 12h 40m
Length of Day
11h 50m
Waxing Gibbous, 85% of the Moon is Illuminated
Mar 12
Waxing Gibbous
Mar 16
Full
Mar 23
Last Quarter
Mar 30
New
Apr 7
First Quarter

Hourly Weather History & Observations

Time (EDT) Temp. Windchill Dew Point Humidity Pressure Visibility Wind Dir Wind Speed Gust Speed Precip Events Conditions
12:52 AM 64.9 °F - 48.0 °F 54% 29.67 in 10.0 mi SW 4.6 mph - N/A   Mostly Cloudy
1:52 AM 64.9 °F - 48.9 °F 56% 29.65 in 10.0 mi SSW 5.8 mph - N/A   Overcast
2:52 AM 66.0 °F - 51.1 °F 59% 29.64 in 10.0 mi SW 6.9 mph - N/A   Overcast
3:52 AM 66.0 °F - 52.0 °F 60% 29.62 in 10.0 mi SSW 16.1 mph 26.5 mph 0.00 in   Overcast
4:52 AM 64.9 °F - 52.0 °F 63% 29.60 in 10.0 mi SW 16.1 mph 21.9 mph N/A   Overcast
5:52 AM 62.1 °F - 55.0 °F 78% 29.60 in 10.0 mi WSW 12.7 mph 18.4 mph 0.00 in Rain Light Rain
6:52 AM 61.0 °F - 55.9 °F 83% 29.58 in 10.0 mi SW 10.4 mph - 0.00 in   Overcast
7:52 AM 59.0 °F - 57.0 °F 93% 29.57 in 7.0 mi SSW 11.5 mph - 0.01 in Rain Light Rain
8:06 AM 59.0 °F - 57.2 °F 94% 29.58 in 8.0 mi SSW 11.5 mph - 0.00 in Rain Light Rain
8:14 AM 59.0 °F - 57.2 °F 94% 29.58 in 7.0 mi SSW 11.5 mph - 0.00 in Rain Light Rain
8:25 AM 59.0 °F - 57.2 °F 94% 29.58 in 2.0 mi SSW 13.8 mph - 0.00 in Rain Light Rain
8:32 AM 59.0 °F - 57.2 °F 94% 29.58 in 2.0 mi SSW 11.5 mph 19.6 mph 0.02 in Rain Light Rain
8:52 AM 59.0 °F - 57.9 °F 96% 29.56 in 2.0 mi SSW 12.7 mph - 0.03 in Rain Light Rain
9:33 AM 59.0 °F - 57.2 °F 94% 29.55 in 2.0 mi SSW 12.7 mph 18.4 mph 0.00 in Rain Light Rain
9:45 AM 59.0 °F - 57.2 °F 94% 29.55 in 2.0 mi SSW 13.8 mph - 0.01 in Rain Light Rain
9:52 AM 59.0 °F - 57.9 °F 96% 29.53 in 2.0 mi SSW 9.2 mph - 0.01 in   Overcast
10:39 AM 59.0 °F - 57.2 °F 94% 29.53 in 6.0 mi SSW 13.8 mph 19.6 mph 0.00 in Rain Light Rain
10:52 AM 59.0 °F - 57.9 °F 96% 29.50 in 4.0 mi SSW 15.0 mph - 0.00 in Rain Light Rain
11:52 AM 60.1 °F - 57.9 °F 93% 29.47 in 10.0 mi SW 13.8 mph 21.9 mph 0.00 in   Overcast
12:05 PM 60.8 °F - 57.2 °F 88% 29.48 in 10.0 mi SSW 12.7 mph 20.7 mph N/A   Overcast
12:52 PM 61.0 °F - 57.9 °F 90% 29.44 in 10.0 mi SW 16.1 mph 23.0 mph N/A   Overcast
1:32 PM 62.6 °F - 59.0 °F 88% 29.43 in 10.0 mi SSW 16.1 mph 21.9 mph N/A   Overcast
1:52 PM 63.0 °F - 59.0 °F 87% 29.41 in 10.0 mi SW 11.5 mph 19.6 mph N/A   Overcast
2:13 PM 64.4 °F - 59.0 °F 83% 29.40 in 10.0 mi SW 13.8 mph 24.2 mph N/A   Overcast
2:52 PM 70.0 °F - 59.0 °F 68% 29.34 in 10.0 mi SW 15.0 mph 25.3 mph N/A   Mostly Cloudy
3:52 PM 73.9 °F - 55.9 °F 53% 29.31 in 10.0 mi WSW 16.1 mph 28.8 mph N/A   Scattered Clouds
4:52 PM 73.0 °F - 54.0 °F 51% 29.29 in 10.0 mi SW 19.6 mph 31.1 mph N/A   Mostly Cloudy
5:52 PM 72.0 °F - 52.0 °F 49% 29.30 in 10.0 mi WSW 21.9 mph 35.7 mph N/A   Mostly Cloudy
6:39 PM 69.8 °F - 44.6 °F 40% 29.38 in 10.0 mi WNW 16.1 mph 27.6 mph N/A   Scattered Clouds
6:52 PM 64.9 °F - 42.1 °F 43% 29.39 in 10.0 mi WNW 26.5 mph 41.4 mph N/A   Scattered Clouds
7:52 PM 52.0 °F - 33.1 °F 49% 29.53 in 10.0 mi NW 20.7 mph 31.1 mph N/A   Mostly Cloudy
8:52 PM 48.0 °F - 30.0 °F 50% 29.59 in 10.0 mi NW 12.7 mph 26.5 mph N/A   Scattered Clouds
9:52 PM 46.9 °F - 28.9 °F 50% 29.64 in 10.0 mi WNW 16.1 mph 23.0 mph N/A   Partly Cloudy
10:52 PM 45.0 °F 37.9 °F 26.1 °F 48% 29.69 in 10.0 mi WNW 16.1 mph 23.0 mph N/A   Partly Cloudy
11:52 PM 44.1 °F 36.8 °F 23.0 °F 43% 29.72 in 10.0 mi NW 16.1 mph 27.6 mph N/A   Clear